| time (UTC) | temp C | wind direction | speed KPH | gust KPH | rain 1hr cm | rain 24hr cm | rain mn cm | humidity % | barometer mb |
| 20260510164349 | 24 | 45 | 3.2 | 11.3 | 0.00 | 0.00 | 0.00 | 62 | 1015.4 |
| 20260510163916 | 25 | 83 | 11.3 | 11.3 | 0.00 | 0.00 | 0.00 | 61 | 1015.6 |
| 20260510163322 | 25 | 189 | 6.4 | 9.7 | 0.00 | 0.00 | 0.00 | 50 | 1015.5 |
| 20260510162749 | 25 | 185 | 4.8 | 17.7 | 0.00 | 0.00 | 0.00 | 49 | 1015.5 |
| 20260510162249 | 25 | 166 | 3.2 | 17.7 | 0.00 | 0.00 | 0.00 | 52 | 1015.6 |
| 20260510161948 | 25 | 214 | 9.7 | 20.9 | 0.00 | 0.00 | 0.00 | 51 | 1015.6 |
| 20260510161409 | 25 | 231 | 6.4 | 20.9 | 0.00 | 0.00 | 0.00 | 51 | 1015.5 |
| 20260510160649 | 25 | 301 | 3.2 | 11.3 | 0.00 | 0.00 | 0.00 | 50 | 1015.5 |
| 20260510160342 | 25 | 293 | 3.2 | 12.9 | 0.00 | 0.00 | 0.00 | 50 | 1015.5 |
| 20260510155550 | 25 | 334 | 3.2 | 12.9 | 0.00 | 0.00 | 0.00 | 51 | 1015.6 |
| 20260510155048 | 25 | 207 | 9.7 | 12.9 | 0.00 | 0.00 | 0.00 | 52 | 1015.8 |
| 20260510154533 | 24 | 228 | 3.2 | 12.9 | 0.00 | 0.00 | 0.00 | 52 | 1015.8 |
| 20260510153947 | 23 | 204 | 9.7 | 12.9 | 0.00 | 0.00 | 0.00 | 53 | 1015.7 |
| 20260510153449 | 24 | 93 | 3.2 | 12.9 | 0.00 | 0.00 | 0.00 | 51 | 1015.9 |
| 20260510152917 | 24 | 222 | 6.4 | 11.3 | 0.00 | 0.00 | 0.00 | 53 | 1015.6 |
| 20260510152347 | 24 | 30 | 3.2 | 16.1 | 0.00 | 0.00 | 0.00 | 53 | 1015.8 |
| 20260510151847 | 24 | 234 | 6.4 | 16.1 | 0.00 | 0.00 | 0.00 | 55 | 1015.6 |
| 20260510151329 | 23 | 286 | 6.4 | 16.1 | 0.00 | 0.00 | 0.00 | 55 | 1015.8 |
| 20260510150746 | 22 | 239 | 9.7 | 14.5 | 0.00 | 0.00 | 0.00 | 58 | 1015.7 |
| 20260510150246 | 23 | 274 | 3.2 | 14.5 | 0.00 | 0.00 | 0.00 | 57 | 1015.8 |
| 20260510145716 | 23 | 241 | 4.8 | 14.5 | 0.00 | 0.00 | 0.00 | 58 | 1015.6 |
| 20260510144647 | 23 | 2 | 0.0 | 14.5 | 0.00 | 0.00 | 0.00 | 57 | 1015.3 |
| 20260510144116 | 22 | 194 | 8.0 | 14.5 | 0.00 | 0.00 | 0.00 | 60 | 1015.3 |
| 20260510143546 | 23 | 29 | 4.8 | 8.0 | 0.00 | 0.00 | 0.00 | 59 | 1015.2 |
| 20260510143047 | 22 | 240 | 4.8 | 9.7 | 0.00 | 0.00 | 0.00 | 58 | 1015.1 |
| 20260510142515 | 22 | 229 | 3.2 | 9.7 | 0.00 | 0.00 | 0.00 | 61 | 1015.2 |
| 20260510142207 | 22 | 15 | 4.8 | 8.0 | 0.00 | 0.00 | 0.00 | 66 | 1015.2 |
| 20260510141445 | 22 | 313 | 3.2 | 8.0 | 0.00 | 0.00 | 0.00 | 62 | 1015.1 |
| 20260510140914 | 22 | 60 | 0.0 | 9.7 | 0.00 | 0.00 | 0.00 | 67 | 1015.2 |
| 20260510140345 | 21 | 211 | 4.8 | 9.7 | 0.00 | 0.00 | 0.00 | 68 | 1015.3 |
| 20260510135844 | 21 | 209 | 3.2 | 9.7 | 0.00 | 0.00 | 0.00 | 69 | 1015.4 |
| 20260510135314 | 20 | 172 | 4.8 | 9.7 | 0.00 | 0.00 | 0.00 | 75 | 1015.3 |
| 20260510135002 | 20 | 213 | 3.2 | 6.4 | 0.00 | 0.00 | 0.00 | 75 | 1015.4 |
| 20260510134245 | 20 | 60 | 3.2 | 6.4 | 0.00 | 0.00 | 0.00 | 76 | 1015.2 |
| 20260510133714 | 20 | 226 | 0.0 | 6.4 | 0.00 | 0.00 | 0.00 | 73 | 1015.2 |
| 20260510133144 | 19 | 194 | 3.2 | 6.4 | 0.00 | 0.00 | 0.00 | 76 | 1015.3 |
| 20260510132644 | 19 | 185 | 4.8 | 6.4 | 0.00 | 0.00 | 0.00 | 75 | 1015.7 |
| 20260510132114 | 18 | 255 | 4.8 | 6.4 | 0.00 | 0.00 | 0.00 | 78 | 1015.7 |
| 20260510131544 | 18 | 307 | 4.8 | 6.4 | 0.00 | 0.00 | 0.00 | 78 | 1015.8 |
| 20260510131043 | 18 | 352 | 3.2 | 6.4 | 0.00 | 0.00 | 0.00 | 79 | 1015.7 |
| 20260510130514 | 18 | 263 | 0.0 | 6.4 | 0.00 | 0.00 | 0.00 | 82 | 1015.7 |
| 20260510125942 | 18 | 152 | 0.0 | 4.8 | 0.00 | 0.00 | 0.00 | 83 | 1015.9 |
| 20260510125442 | 17 | 105 | 3.2 | 4.8 | 0.00 | 0.00 | 0.00 | 83 | 1016.0 |
| 20260510124913 | 17 | 303 | 3.2 | 8.0 | 0.00 | 0.00 | 0.00 | 86 | 1015.7 |
| 20260510124341 | 17 | 26 | 3.2 | 8.0 | 0.00 | 0.00 | 0.00 | 87 | 1015.9 |
| 20260510123842 | 17 | 73 | 0.0 | 8.0 | 0.00 | 0.00 | 0.00 | 88 | 1015.8 |
| 20260510123313 | 16 | 31 | 3.2 | 8.0 | 0.00 | 0.00 | 0.00 | 91 | 1016.1 |
| 20260510122743 | 15 | 319 | 0.0 | 8.0 | 0.00 | 0.00 | 0.00 | 96 | 1015.7 |
| 20260510122242 | 15 | 45 | 0.0 | 8.0 | 0.00 | 0.00 | 0.00 | 100 | 1015.7 |
| 20260510121711 | 14 | 5 | 6.4 | 8.0 | 0.00 | 0.00 | 0.00 | 100 | 1015.7 |
| 20260510121141 | 13 | 304 | 3.2 | 6.4 | 0.00 | 0.00 | 0.00 | 100 | 1015.8 |
| 20260510120654 | 13 | 5 | 3.2 | 4.8 | 0.00 | 0.00 | 0.00 | 100 | 1015.7 |
| 20260510120112 | 13 | 31 | 3.2 | 4.8 | 0.00 | 0.00 | 0.00 | 100 | 1015.7 |
| 20260510115611 | 13 | 79 | 3.2 | 4.8 | 0.00 | 0.00 | 0.00 | 100 | 1015.8 |
| 20260510115040 | 13 | 85 | 1.6 | 3.2 | 0.00 | 0.00 | 0.00 | 100 | 1015.8 |
| 20260510114511 | 13 | 127 | 0.0 | 4.8 | 0.00 | 0.00 | 0.00 | 100 | 1015.7 |
| 20260510114010 | 12 | 32 | 3.2 | 4.8 | 0.00 | 0.00 | 0.00 | 100 | 1015.7 |
| 20260510113441 | 12 | 95 | 0.0 | 4.8 | 0.00 | 0.00 | 0.00 | 100 | 1015.2 |
| 20260510112409 | 12 | 54 | 0.0 | 3.2 | 0.00 | 0.00 | 0.00 | 100 | 1015.4 |
| 20260510111839 | 11 | 133 | 0.0 | 3.2 | 0.00 | 0.00 | 0.00 | 100 | 1015.1 |
| 20260510111309 | 11 | 23 | 1.6 | 3.2 | 0.00 | 0.00 | 0.00 | 100 | 1015.0 |
| 20260510110810 | 11 | 95 | 0.0 | 0.0 | 0.00 | 0.00 | 0.00 | 100 | 1014.9 |
| 20260510110240 | 10 | 30 | 0.0 | 1.6 | 0.00 | 0.00 | 0.00 | 100 | 1014.7 |
| 20260510105709 | 8 | 102 | 0.0 | 1.6 | 0.00 | 0.00 | 0.00 | 100 | 1014.4 |
| 20260510105208 | 8 | 105 | 0.0 | 3.2 | 0.00 | 0.00 | 0.00 | 100 | 1014.5 |
| 20260510104638 | 8 | 95 | 0.0 | 3.2 | 0.00 | 0.00 | 0.00 | 100 | 1014.6 |
| 20260510104108 | 8 | 85 | 1.6 | 3.2 | 0.00 | 0.00 | 0.00 | 100 | 1014.3 |
| 20260510103609 | 8 | 149 | 0.0 | 3.2 | 0.00 | 0.00 | 0.00 | 100 | 1014.4 |
| 20260510103039 | 7 | 75 | 0.0 | 4.8 | 0.00 | 0.00 | 0.00 | 100 | 1014.3 |
| 20260510102507 | 7 | 125 | 0.0 | 4.8 | 0.00 | 0.00 | 0.00 | 100 | 1014.4 |
| 20260510102007 | 8 | 34 | 3.2 | 4.8 | 0.00 | 0.00 | 0.00 | 100 | 1014.4 |
| 20260510101437 | 7 | 105 | 0.0 | 4.8 | 0.00 | 0.00 | 0.00 | 100 | 1014.2 |
| 20260510100907 | 7 | 158 | 1.6 | 3.2 | 0.00 | 0.00 | 0.00 | 100 | 1014.3 |
| 20260510100408 | 7 | 53 | 0.0 | 3.2 | 0.00 | 0.00 | 0.00 | 100 | 1014.2 |
| 20260510095837 | 7 | 166 | 0.0 | 4.8 | 0.00 | 0.00 | 0.00 | 100 | 1014.2 |
| 20260510095306 | 8 | 13 | 3.2 | 4.8 | 0.00 | 0.00 | 0.00 | 100 | 1014.2 |
| 20260510094806 | 7 | 81 | 0.0 | 3.2 | 0.00 | 0.00 | 0.00 | 100 | 1014.2 |
| 20260510094236 | 7 | 61 | 0.0 | 3.2 | 0.00 | 0.00 | 0.00 | 100 | 1014.2 |
| 20260510093707 | 7 | 63 | 0.0 | 3.2 | 0.00 | 0.00 | 0.00 | 100 | 1014.1 |
| 20260510093207 | 7 | 32 | 0.0 | 3.2 | 0.00 | 0.00 | 0.00 | 100 | 1014.0 |
| 20260510092857 | 7 | 109 | 0.0 | 3.2 | 0.00 | 0.00 | 0.00 | 100 | 1014.1 |
| 20260510092105 | 8 | 127 | 0.0 | 3.2 | 0.00 | 0.00 | 0.00 | 100 | 1014.0 |
| 20260510091605 | 7 | 91 | 0.0 | 3.2 | 0.00 | 0.00 | 0.00 | 100 | 1014.0 |
| 20260510091035 | 7 | 58 | 0.0 | 3.2 | 0.00 | 0.00 | 0.00 | 100 | 1013.8 |
| 20260510090518 | 8 | 20 | 0.0 | 3.2 | 0.00 | 0.00 | 0.00 | 100 | 1013.9 |
| 20260510090007 | 8 | 127 | 0.0 | 3.2 | 0.00 | 0.00 | 0.00 | 100 | 1013.9 |
| 20260510085435 | 8 | 52 | 0.0 | 3.2 | 0.00 | 0.00 | 0.00 | 100 | 1013.8 |
| 20260510084905 | 8 | 108 | 3.2 | 3.2 | 0.00 | 0.00 | 0.00 | 100 | 1013.7 |
| 20260510084405 | 8 | 58 | 0.0 | 3.2 | 0.00 | 0.00 | 0.00 | 100 | 1013.7 |
| 20260510083834 | 8 | 52 | 1.6 | 3.2 | 0.00 | 0.00 | 0.00 | 100 | 1013.6 |
| 20260510083304 | 8 | 62 | 0.0 | 3.2 | 0.00 | 0.00 | 0.00 | 100 | 1013.4 |
| 20260510082805 | 8 | 27 | 0.0 | 3.2 | 0.00 | 0.00 | 0.00 | 100 | 1013.2 |
| 20260510082234 | 8 | 27 | 0.0 | 3.2 | 0.00 | 0.00 | 0.00 | 100 | 1013.3 |
| 20260510081704 | 8 | 118 | 0.0 | 3.2 | 0.00 | 0.00 | 0.00 | 100 | 1013.3 |
| 20260510081203 | 8 | 358 | 0.0 | 3.2 | 0.00 | 0.00 | 0.00 | 100 | 1013.2 |
| 20260510080634 | 8 | 47 | 0.0 | 3.2 | 0.00 | 0.00 | 0.00 | 100 | 1013.2 |
| 20260510080103 | 8 | 9 | 0.0 | 3.2 | 0.00 | 0.00 | 0.00 | 100 | 1013.0 |
| 20260510075603 | 8 | 79 | 0.0 | 3.2 | 0.00 | 0.00 | 0.00 | 100 | 1012.9 |
| 20260510074503 | 8 | 83 | 0.0 | 1.6 | 0.00 | 0.00 | 0.00 | 100 | 1012.7 |
| 20260510074003 | 8 | 127 | 0.0 | 1.6 | 0.00 | 0.00 | 0.00 | 100 | 1012.9 |
| 20260510073432 | 8 | 128 | 0.0 | 3.2 | 0.00 | 0.00 | 0.00 | 100 | 1012.8 |
| 20260510072902 | 9 | 23 | 1.6 | 3.2 | 0.00 | 0.00 | 0.00 | 100 | 1012.8 |
| 20260510072402 | 8 | 118 | 0.0 | 3.2 | 0.00 | 0.00 | 0.00 | 100 | 1012.6 |
| 20260510071832 | 9 | 313 | 0.0 | 3.2 | 0.00 | 0.00 | 0.00 | 100 | 1012.8 |
| 20260510071301 | 9 | 126 | 0.0 | 3.2 | 0.00 | 0.00 | 0.00 | 100 | 1012.7 |
| 20260510070803 | 9 | 139 | 0.0 | 3.2 | 0.00 | 0.00 | 0.00 | 100 | 1012.6 |
| 20260510070231 | 9 | 132 | 0.0 | 3.2 | 0.00 | 0.00 | 0.00 | 100 | 1012.7 |
| 20260510065701 | 9 | 72 | 0.0 | 3.2 | 0.00 | 0.00 | 0.00 | 100 | 1012.6 |
| 20260510065420 | 9 | 108 | 0.0 | 3.2 | 0.00 | 0.00 | 0.00 | 100 | 1012.6 |
| 20260510064630 | 10 | 121 | 0.0 | 3.2 | 0.00 | 0.00 | 0.00 | 100 | 1012.6 |
| 20260510064101 | 10 | 9 | 0.0 | 3.2 | 0.00 | 0.00 | 0.00 | 100 | 1012.5 |
| 20260510063600 | 10 | 148 | 0.0 | 3.2 | 0.00 | 0.00 | 0.00 | 100 | 1012.6 |
| 20260510063032 | 10 | 91 | 0.0 | 3.2 | 0.00 | 0.00 | 0.00 | 100 | 1012.7 |
| 20260510062749 | 10 | 55 | 0.0 | 3.2 | 0.00 | 0.00 | 0.00 | 100 | 1012.3 |
| 20260510061959 | 10 | 118 | 0.0 | 3.2 | 0.00 | 0.00 | 0.00 | 100 | 1012.7 |
| 20260510061431 | 10 | 113 | 1.6 | 3.2 | 0.00 | 0.00 | 0.00 | 100 | 1012.7 |
| 20260510060930 | 10 | 30 | 0.0 | 3.2 | 0.00 | 0.00 | 0.00 | 100 | 1012.3 |
| 20260510060401 | 10 | 152 | 0.0 | 3.2 | 0.00 | 0.00 | 0.00 | 100 | 1012.4 |
| 20260510055829 | 10 | 119 | 0.0 | 3.2 | 0.00 | 0.00 | 0.00 | 100 | 1012.4 |
| 20260510055549 | 10 | 6 | 0.0 | 3.2 | 0.00 | 0.00 | 0.00 | 100 | 1012.4 |
| 20260510054759 | 10 | 21 | 0.0 | 3.2 | 0.00 | 0.00 | 0.00 | 100 | 1012.5 |
| 20260510054228 | 10 | 28 | 0.0 | 3.2 | 0.00 | 0.00 | 0.00 | 100 | 1012.5 |
| 20260510053959 | 10 | 146 | 0.0 | 3.2 | 0.00 | 0.00 | 0.00 | 100 | 1012.6 |
| 20260510053158 | 10 | 139 | 0.0 | 3.2 | 0.00 | 0.00 | 0.00 | 100 | 1012.5 |
| 20260510052629 | 10 | 149 | 0.0 | 3.2 | 0.00 | 0.00 | 0.00 | 100 | 1012.6 |
| 20260510052128 | 10 | 9 | 0.0 | 3.2 | 0.00 | 0.00 | 0.00 | 100 | 1012.5 |
| 20260510051559 | 10 | 105 | 0.0 | 3.2 | 0.00 | 0.00 | 0.00 | 100 | 1012.6 |
| 20260510051044 | 11 | 108 | 0.0 | 3.2 | 0.00 | 0.00 | 0.00 | 100 | 1012.7 |
| 20260510050529 | 11 | 115 | 1.6 | 3.2 | 0.00 | 0.00 | 0.00 | 100 | 1012.6 |
| 20260510050217 | 11 | 23 | 0.0 | 3.2 | 0.00 | 0.00 | 0.00 | 100 | 1012.7 |
| 20260510045427 | 11 | 23 | 0.0 | 3.2 | 0.00 | 0.00 | 0.00 | 100 | 1012.7 |
| 20260510044927 | 11 | 49 | 0.0 | 3.2 | 0.00 | 0.00 | 0.00 | 100 | 1012.8 |
| 20260510044358 | 11 | 127 | 0.0 | 3.2 | 0.00 | 0.00 | 0.00 | 100 | 1012.6 |
| 20260510043828 | 11 | 84 | 0.0 | 3.2 | 0.00 | 0.00 | 0.00 | 100 | 1012.7 |
| 20260510043326 | 11 | 30 | 0.0 | 3.2 | 0.00 | 0.00 | 0.00 | 100 | 1012.8 |
| 20260510042757 | 11 | 72 | 0.0 | 3.2 | 0.00 | 0.00 | 0.00 | 100 | 1012.5 |
| 20260510042226 | 11 | 36 | 0.0 | 1.6 | 0.00 | 0.00 | 0.00 | 100 | 1012.5 |
| 20260510041726 | 11 | 52 | 0.0 | 1.6 | 0.00 | 0.00 | 0.00 | 100 | 1012.7 |
| 20260510041415 | 11 | 122 | 0.0 | 1.6 | 0.00 | 0.00 | 0.00 | 100 | 1012.5 |
| 20260510040626 | 11 | 123 | 0.0 | 0.0 | 0.00 | 0.00 | 0.00 | 100 | 1012.6 |
| 20260510040139 | 11 | 14 | 0.0 | 0.0 | 0.00 | 0.00 | 0.00 | 100 | 1012.4 |
| 20260510035556 | 12 | 142 | 0.0 | 1.6 | 0.00 | 0.00 | 0.00 | 100 | 1012.7 |
| 20260510035033 | 12 | 15 | 0.0 | 3.2 | 0.00 | 0.00 | 0.00 | 100 | 1012.1 |
| 20260510034747 | 12 | 52 | 0.0 | 3.2 | 0.00 | 0.00 | 0.00 | 100 | 1012.4 |
| 20260510033955 | 12 | 25 | 1.6 | 3.2 | 0.00 | 0.00 | 0.00 | 100 | 1012.4 |
| 20260510033425 | 12 | 14 | 0.0 | 3.2 | 0.00 | 0.00 | 0.00 | 100 | 1012.4 |
| 20260510032925 | 12 | 21 | 0.0 | 3.2 | 0.00 | 0.00 | 0.00 | 100 | 1012.4 |
| 20260510032355 | 12 | 139 | 0.0 | 3.2 | 0.00 | 0.00 | 0.00 | 100 | 1012.4 |
| 20260510032105 | 12 | 24 | 0.0 | 3.2 | 0.00 | 0.00 | 0.00 | 100 | 1012.3 |
| 20260510031324 | 12 | 80 | 0.0 | 3.2 | 0.00 | 0.00 | 0.00 | 100 | 1012.2 |
| 20260510030754 | 12 | 139 | 0.0 | 3.2 | 0.00 | 0.00 | 0.00 | 100 | 1012.1 |
| 20260510030224 | 13 | 106 | 1.6 | 3.2 | 0.00 | 0.00 | 0.00 | 100 | 1012.3 |
| 20260510025725 | 13 | 136 | 0.0 | 3.2 | 0.00 | 0.00 | 0.00 | 100 | 1012.0 |
| 20260510025154 | 13 | 145 | 0.0 | 3.2 | 0.00 | 0.00 | 0.00 | 100 | 1012.1 |
| 20260510024624 | 13 | 132 | 1.6 | 3.2 | 0.00 | 0.00 | 0.00 | 100 | 1012.3 |
| 20260510024340 | 13 | 122 | 1.6 | 3.2 | 0.00 | 0.00 | 0.00 | 100 | 1012.1 |
| 20260510023553 | 13 | 114 | 0.0 | 3.2 | 0.00 | 0.00 | 0.00 | 100 | 1012.2 |
| 20260510023030 | 13 | 104 | 0.0 | 3.2 | 0.00 | 0.00 | 0.00 | 99 | 1012.2 |
| 20260510022523 | 13 | 147 | 0.0 | 3.2 | 0.00 | 0.00 | 0.00 | 99 | 1012.2 |
| 20260510021953 | 13 | 114 | 0.0 | 3.2 | 0.00 | 0.00 | 0.00 | 99 | 1012.0 |
| 20260510021424 | 13 | 151 | 0.0 | 3.2 | 0.00 | 0.00 | 0.00 | 98 | 1011.9 |
| 20260510020922 | 14 | 131 | 1.6 | 3.2 | 0.00 | 0.00 | 0.00 | 98 | 1012.0 |
| 20260510020353 | 13 | 103 | 1.6 | 3.2 | 0.00 | 0.00 | 0.00 | 97 | 1011.8 |
| 20260510015822 | 13 | 103 | 1.6 | 3.2 | 0.00 | 0.00 | 0.00 | 97 | 1012.0 |
| 20260510015324 | 13 | 94 | 0.0 | 3.2 | 0.00 | 0.00 | 0.00 | 97 | 1011.8 |
| 20260510014753 | 14 | 139 | 1.6 | 3.2 | 0.00 | 0.00 | 0.00 | 96 | 1012.0 |
| 20260510014222 | 14 | 134 | 1.6 | 3.2 | 0.00 | 0.00 | 0.00 | 95 | 1011.6 |
| 20260510013722 | 14 | 111 | 3.2 | 3.2 | 0.00 | 0.00 | 0.00 | 94 | 1011.7 |
| 20260510013151 | 15 | 88 | 3.2 | 3.2 | 0.00 | 0.00 | 0.00 | 94 | 1011.5 |
| 20260510012623 | 15 | 98 | 0.0 | 3.2 | 0.00 | 0.00 | 0.00 | 94 | 1011.5 |
| 20260510012121 | 15 | 102 | 3.2 | 3.2 | 0.00 | 0.00 | 0.00 | 93 | 1011.6 |
| 20260510011551 | 15 | 41 | 0.0 | 3.2 | 0.00 | 0.00 | 0.00 | 92 | 1011.4 |
| 20260510011023 | 15 | 132 | 0.0 | 3.2 | 0.00 | 0.00 | 0.00 | 92 | 1011.4 |
| 20260510010520 | 15 | 91 | 1.6 | 3.2 | 0.00 | 0.00 | 0.00 | 91 | 1011.5 |
| 20260510010214 | 15 | 105 | 0.0 | 3.2 | 0.00 | 0.00 | 0.00 | 90 | 1011.6 |
| 20260510005450 | 15 | 14 | 0.0 | 3.2 | 0.00 | 0.00 | 0.00 | 89 | 1011.4 |
| 20260510004921 | 16 | 10 | 0.0 | 3.2 | 0.00 | 0.00 | 0.00 | 88 | 1011.3 |
| 20260510004349 | 16 | 35 | 0.0 | 3.2 | 0.00 | 0.00 | 0.00 | 87 | 1011.2 |
| 20260510003850 | 16 | 48 | 0.0 | 3.2 | 0.00 | 0.00 | 0.00 | 86 | 1011.2 |
| 20260510003319 | 16 | 29 | 0.0 | 3.2 | 0.00 | 0.00 | 0.00 | 85 | 1011.2 |
| 20260510003013 | 16 | 36 | 0.0 | 3.2 | 0.00 | 0.00 | 0.00 | 84 | 1011.2 |
| 20260510002249 | 17 | 60 | 0.0 | 3.2 | 0.00 | 0.00 | 0.00 | 82 | 1011.2 |
| 20260510001721 | 17 | 44 | 1.6 | 4.8 | 0.00 | 0.00 | 0.00 | 81 | 1010.8 |
| 20260510001148 | 17 | 84 | 3.2 | 4.8 | 0.00 | 0.00 | 0.00 | 80 | 1011.1 |
| 20260510000908 | 18 | 53 | 3.2 | 6.4 | 0.00 | 0.00 | 0.00 | 79 | 1011.0 |
| 20260510000345 | 18 | 160 | 0.0 | 6.4 | 0.00 | 0.00 | 0.00 | 79 | 1010.8 |
| 20260509235548 | 18 | 170 | 0.0 | 8.0 | 0.00 | 0.00 | 0.00 | 78 | 1010.8 |
| 20260509235048 | 18 | 172 | 3.2 | 8.0 | 0.00 | 0.00 | 0.00 | 77 | 1010.9 |
| 20260509234520 | 18 | 172 | 1.6 | 9.7 | 0.00 | 0.00 | 0.00 | 77 | 1010.6 |
| 20260509233948 | 18 | 165 | 0.0 | 11.3 | 0.00 | 0.00 | 0.00 | 76 | 1010.9 |
| 20260509233449 | 18 | 207 | 6.4 | 11.3 | 0.00 | 0.00 | 0.00 | 75 | 1010.8 |
| 20260509232918 | 18 | 221 | 3.2 | 8.0 | 0.00 | 0.00 | 0.00 | 75 | 1010.7 |
| 20260509232624 | 18 | 229 | 0.0 | 8.0 | 0.00 | 0.00 | 0.00 | 75 | 1010.7 |
| 20260509231847 | 18 | 215 | 1.6 | 6.4 | 0.00 | 0.00 | 0.00 | 74 | 1010.9 |
| 20260509231318 | 19 | 197 | 3.2 | 9.7 | 0.00 | 0.00 | 0.00 | 73 | 1010.9 |
| 20260509230747 | 19 | 193 | 1.6 | 8.0 | 0.00 | 0.00 | 0.00 | 73 | 1010.6 |
| 20260509230246 | 20 | 190 | 3.2 | 22.5 | 0.00 | 0.00 | 0.00 | 72 | 1010.6 |
| 20260509225940 | 20 | 200 | 3.2 | 22.5 | 0.00 | 0.00 | 0.00 | 72 | 1010.6 |
| 20260509225146 | 20 | 179 | 3.2 | 9.7 | 0.00 | 0.00 | 0.00 | 71 | 1010.5 |
| 20260509224646 | 20 | 194 | 1.6 | 9.7 | 0.00 | 0.00 | 0.00 | 71 | 1010.5 |
| 20260509224340 | 20 | 170 | 3.2 | 9.7 | 0.00 | 0.00 | 0.00 | 70 | 1010.5 |
| 20260509223804 | 20 | 179 | 0.0 | 11.3 | 0.00 | 0.00 | 0.00 | 71 | 1010.8 |
| 20260509223045 | 20 | 197 | 4.8 | 11.3 | 0.00 | 0.00 | 0.00 | 72 | 1010.7 |
| 20260509222515 | 21 | 85 | 0.0 | 9.7 | 0.00 | 0.00 | 0.00 | 69 | 1010.6 |
| 20260509221947 | 21 | 224 | 3.2 | 8.0 | 0.00 | 0.00 | 0.00 | 69 | 1010.5 |
| 20260509221445 | 21 | 100 | 4.8 | 8.0 | 0.00 | 0.00 | 0.00 | 69 | 1010.7 |
| 20260509220916 | 21 | 55 | 3.2 | 8.0 | 0.00 | 0.00 | 0.00 | 69 | 1010.7 |
| 20260509220609 | 21 | 202 | 0.0 | 8.0 | 0.00 | 0.00 | 0.00 | 70 | 1010.6 |
| 20260509215844 | 21 | 86 | 3.2 | 8.0 | 0.00 | 0.00 | 0.00 | 69 | 1010.6 |
| 20260509215314 | 21 | 78 | 6.4 | 9.7 | 0.00 | 0.00 | 0.00 | 69 | 1010.7 |
| 20260509214744 | 20 | 75 | 4.8 | 16.1 | 0.00 | 0.00 | 0.00 | 71 | 1010.5 |
| 20260509214245 | 21 | 49 | 3.2 | 16.1 | 0.00 | 0.00 | 0.00 | 69 | 1010.7 |
| 20260509213714 | 21 | 99 | 3.2 | 8.0 | 0.00 | 0.00 | 0.00 | 68 | 1010.7 |
| 20260509213144 | 21 | 40 | 3.2 | 8.0 | 0.00 | 0.00 | 0.00 | 68 | 1010.5 |
| 20260509212643 | 21 | 39 | 4.8 | 6.4 | 0.00 | 0.00 | 0.00 | 68 | 1010.4 |
| 20260509212113 | 21 | 51 | 3.2 | 6.4 | 0.00 | 0.00 | 0.00 | 67 | 1010.5 |
| 20260509211804 | 21 | 145 | 3.2 | 6.4 | 0.00 | 0.00 | 0.00 | 68 | 1010.4 |
| 20260509211043 | 22 | 116 | 4.8 | 16.1 | 0.00 | 0.00 | 0.00 | 66 | 1010.5 |
| 20260509210513 | 21 | 230 | 3.2 | 16.1 | 0.00 | 0.00 | 0.00 | 68 | 1010.2 |
| 20260509205943 | 20 | 106 | 3.2 | 9.7 | 0.00 | 0.00 | 0.00 | 70 | 1010.5 |
| 20260509205443 | 20 | 33 | 3.2 | 9.7 | 0.00 | 0.00 | 0.00 | 70 | 1010.3 |
| 20260509204913 | 21 | 53 | 3.2 | 9.7 | 0.00 | 0.00 | 0.00 | 70 | 1010.3 |
| 20260509204342 | 21 | 305 | 3.2 | 11.3 | 0.00 | 0.00 | 0.00 | 71 | 1010.4 |
| 20260509203842 | 20 | 80 | 3.2 | 12.9 | 0.00 | 0.00 | 0.00 | 71 | 1010.4 |
| 20260509203312 | 20 | 338 | 3.2 | 12.9 | 0.00 | 0.00 | 0.00 | 73 | 1010.6 |
| 20260509202742 | 20 | 79 | 6.4 | 8.0 | 0.00 | 0.00 | 0.00 | 77 | 1010.6 |
| 20260509202241 | 20 | 352 | 1.6 | 12.9 | 0.00 | 0.00 | 0.00 | 78 | 1010.8 |
| 20260509201713 | 20 | 357 | 1.6 | 12.9 | 0.00 | 0.00 | 0.00 | 79 | 1010.7 |
| 20260509201141 | 20 | 350 | 6.4 | 9.7 | 0.00 | 0.00 | 0.00 | 78 | 1010.9 |
| 20260509200641 | 19 | 354 | 4.8 | 9.7 | 0.00 | 0.00 | 0.00 | 80 | 1011.0 |
| 20260509200111 | 20 | 12 | 3.2 | 9.7 | 0.00 | 0.00 | 0.00 | 79 | 1010.6 |
| 20260509195800 | 20 | 4 | 8.0 | 11.3 | 0.00 | 0.00 | 0.00 | 76 | 1010.9 |
| 20260509195040 | 20 | 357 | 3.2 | 11.3 | 0.00 | 0.00 | 0.00 | 73 | 1010.9 |
| 20260509194510 | 20 | 354 | 4.8 | 8.0 | 0.00 | 0.00 | 0.00 | 74 | 1010.9 |
| 20260509194011 | 20 | 4 | 3.2 | 12.9 | 0.00 | 0.00 | 0.00 | 72 | 1011.0 |
| 20260509193442 | 20 | 5 | 8.0 | 12.9 | 0.00 | 0.00 | 0.00 | 72 | 1011.1 |
| 20260509193136 | 20 | 18 | 4.8 | 6.4 | 0.00 | 0.00 | 0.00 | 71 | 1011.0 |
| 20260509192410 | 20 | 24 | 1.6 | 6.4 | 0.00 | 0.00 | 0.00 | 71 | 1011.1 |
| 20260509191840 | 19 | 32 | 4.8 | 6.4 | 0.00 | 0.00 | 0.00 | 71 | 1010.9 |
| 20260509191309 | 18 | 351 | 3.2 | 6.4 | 0.00 | 0.00 | 0.00 | 75 | 1011.3 |
| 20260509190809 | 18 | 36 | 3.2 | 6.4 | 0.00 | 0.00 | 0.00 | 78 | 1011.4 |
| 20260509190501 | 18 | 63 | 3.2 | 6.4 | 0.00 | 0.00 | 0.00 | 81 | 1011.6 |
| 20260509185710 | 18 | 7 | 3.2 | 4.8 | 0.00 | 0.00 | 0.00 | 83 | 1012.0 |
| 20260509185209 | 18 | 73 | 3.2 | 4.8 | 0.00 | 0.00 | 0.00 | 80 | 1011.8 |
| 20260509184639 | 19 | 43 | 1.6 | 4.8 | 0.00 | 0.00 | 0.00 | 75 | 1012.0 |
| 20260509184108 | 19 | 204 | 0.0 | 6.4 | 0.00 | 0.00 | 0.00 | 72 | 1012.0 |
| 20260509183038 | 19 | 220 | 3.2 | 6.4 | 0.00 | 0.00 | 0.00 | 68 | 1011.9 |
| 20260509182508 | 20 | 184 | 3.2 | 8.0 | 0.00 | 0.00 | 0.00 | 71 | 1012.0 |
| 20260509182021 | 21 | 186 | 3.2 | 11.3 | 0.00 | 0.00 | 0.00 | 60 | 1011.9 |
| 20260509181438 | 21 | 188 | 8.0 | 17.7 | 0.00 | 0.00 | 0.00 | 59 | 1011.9 |
| 20260509180907 | 21 | 201 | 3.2 | 25.7 | 0.00 | 0.00 | 0.00 | 59 | 1012.1 |
| 20260509180409 | 20 | 175 | 8.0 | 25.7 | 0.00 | 0.00 | 0.00 | 59 | 1012.3 |
| 20260509175837 | 21 | 247 | 8.0 | 20.9 | 0.00 | 0.00 | 0.00 | 59 | 1012.2 |
| 20260509175540 | 20 | 192 | 1.6 | 12.9 | 0.00 | 0.00 | 0.00 | 60 | 1012.3 |
| 20260509174807 | 20 | 244 | 6.4 | 17.7 | 0.00 | 0.00 | 0.00 | 59 | 1012.5 |
| 20260509174237 | 20 | 167 | 3.2 | 17.7 | 0.00 | 0.00 | 0.00 | 59 | 1012.2 |
| 20260509173706 | 20 | 225 | 4.8 | 20.9 | 0.00 | 0.00 | 0.00 | 59 | 1012.3 |
| 20260509173206 | 20 | 225 | 9.7 | 20.9 | 0.00 | 0.00 | 0.00 | 59 | 1012.4 |
| 20260509172637 | 21 | 257 | 4.8 | 22.5 | 0.00 | 0.00 | 0.00 | 60 | 1012.2 |
| 20260509172107 | 20 | 210 | 8.0 | 22.5 | 0.00 | 0.00 | 0.00 | 58 | 1012.2 |
| 20260509171605 | 21 | 199 | 6.4 | 17.7 | 0.00 | 0.00 | 0.00 | 58 | 1012.4 |
| 20260509171256 | 21 | 230 | 1.6 | 25.7 | 0.00 | 0.00 | 0.00 | 57 | 1012.5 |
| 20260509170507 | 20 | 230 | 24.1 | 25.7 | 0.00 | 0.00 | 0.00 | 57 | 1012.4 |
| 20260509170006 | 20 | 250 | 8.0 | 25.7 | 0.00 | 0.00 | 0.00 | 57 | 1012.6 |
| 20260509165435 | 20 | 194 | 12.9 | 25.7 | 0.00 | 0.00 | 0.00 | 57 | 1012.3 |
| 20260509165127 | 20 | 223 | 9.7 | 32.2 | 0.00 | 0.00 | 0.00 | 57 | 1012.5 |